Find Starlink 31351

NORAD ID: 58972 Int'l Des: 2024-031 Owner: SPXS Country: US Constellation: starlink operational
LEOCIRCULAR

Live Position

Loading 3D Globe...

About Starlink 31351

Description loading...

Upcoming Passes

Passes for default location (London). Set your location on the main map for personalized predictions.

Altitude History

Loading altitude history...

Two-Line Element Set

1 58972U 24031H 26126.09784910 -.00002857 00000-0 -84472-4 0 9999
2 58972 53.1618 29.9658 0001353 77.0114 283.1037 15.30165531125314
Epoch: May 6, 2026 • Age: 21 hours

Current Status

Altitude 489.1 km
Velocity 7.62 km/s
Sub-Earth Point -39.51°S, 22.82°E
Launch Date Feb 15, 2024
Age 2.2 years
Type internet

Technical Details

Classification Payload
Mass 730.00 kg
Dry Mass 700.00 kg
Total Mass 730.00 kg
Length 0.30 m
Diameter 4.10 m
Span 29.00 m
Shape Box + pan
Manufacturer SPXS
Bus Type Starlink V2M
Phase Status In Orbit
Owner/State SPXS/US

Most Searched